Find Starlink 31131

NORAD ID: 58673 Int'l Des: 2023-211 Owner: SPXS Country: US Constellation: starlink operational
LEOCIRCULAR

当前视图

正在加载3D地球...

About Starlink 31131

Starlink 31131 (NORAD 58673) is a starlink constellation satellite (v2 mini) launched Dec 29, 2023 by SPXS of US. It operates in LEO, CIRCULAR orbit with a mass of 730.00 kg.

关于 Starlink 31131

正在加载描述...

即将过境

Passes for default location (London). Set your location on the main map for personalized predictions.

高度历史

Loading altitude history...

两行轨道根数

1 58673U 23211G 26177.72647293 -.00000780 00000-0 -18844-4 0 9997
2 58673 43.0021 178.7009 0001125 284.6346 75.4381 15.27570335140545
Epoch: Jun 26, 2026 • Age: 12 hours

当前状态

高度 485.1 km
速度 7.62 km/s
星下点 -11.75°S, 14.2°E
发射日期 Dec 29, 2023
运行时间 2.4 years
类型 internet

技术详情

分类 Payload
质量 730.00 kg
干质量 700.00 kg
总质量 730.00 kg
长度 0.30 m
直径 4.10 m
跨度 29.00 m
形状 Box + pan
制造商 SPXS
平台类型 Starlink V2M
阶段状态 In Orbit
所有者/国家 SPXS/US

Most Searched